Preview of NWS' New Version of Forecast
This preview is not operational and should not be used for support decisions.

Regional Weather Roundup (RWR)

Issued by National Weather Service (NWS)

                            
000
ASUS44 KOUN 221010
RWROK 

WEATHER ROUNDUP FOR OKLAHOMA
NATIONAL WEATHER SERVICE NORMAN OK
500 AM CDT MON APR 22 2019

NOTE: "FAIR" INDICATES FEW OR NO CLOUDS BELOW 12,000 FEET WITH NO
      SIGNIFICANT WEATHER AND/OR OBSTRUCTIONS TO VISIBILITY.

OKZ001>007-009>012-014-015-017-221100-
NORTHWEST OKLAHOMA AND THE PANHANDLE
  
CITY           SKY/WX    TMP DP  RH WIND       PRES   REMARKS
GAGE           CLEAR     56  47  71 N12       29.92R                  
GUYMON         CLEAR     50  44  80 N13       30.00R                  
ENID/WOODRING  CLEAR     61  59  94 SW5       29.85R                  
$$

OKZ016-021>023-033>039-044-045-221100-
SOUTHWEST OKLAHOMA
  
CITY           SKY/WX    TMP DP  RH WIND       PRES   REMARKS
LAWTON/REGL    CLEAR     62  59  90 SE7       29.89R                  
LAWTON/FT SILL CLEAR     62  62 100 S10       29.88R                  
FREDERICK      CLEAR     64  61  90 SE9       29.84R                  
CLINTON        CLEAR     61  58  90 S15       29.86R                  
HOBART         CLEAR     65  59  81 S18       29.86R                  
ALTUS AFB      CLEAR     62  61  97 SE7       29.87R                  
$$

OKZ018>020-024>031-221100-
CENTRAL OKLAHOMA
  
CITY           SKY/WX    TMP DP  RH WIND       PRES   REMARKS
OKLAHOMA CITY  CLEAR     63  57  81 S16       29.87S                  
OKC/WILEY POST CLEAR     66  58  75 S20       29.86S                  
OKC/TINKER AFB CLEAR     64  56  74 S17       29.88S                  
STILLWATER     CLEAR     66  55  67 S12       29.87R                  
GUTHRIE        CLEAR     66  57  72 S15G21    29.86R                  
$$

OKZ008-013-054>072-221100-
NORTHEAST OKLAHOMA
  
CITY           SKY/WX    TMP DP  RH WIND       PRES   REMARKS
TULSA          CLEAR     67  55  65 S13       29.89R                  
TULSA/JONES    PTCLDY    66  55  67 S10       29.90R                  
PONCA CITY     CLEAR     64  56  75 S3        29.87R                  
BARTLESVILLE   CLEAR     63  55  75 VRB5      29.90R                  
MUSKOGEE       PTCLDY    64  57  78 S10       29.96R                  
$$

OKZ032-040>043-046>053-073>077-221100-
SOUTH CENTRAL/SOUTHEAST OKLAHOMA
  
CITY           SKY/WX    TMP DP  RH WIND       PRES   REMARKS
ARDMORE/DWNTWN CLEAR     63  54  72 S8        29.94R                  
MCALESTER      PTCLDY    64  55  72 S10G18    29.97R                  
$$